Weather History for Thief River Falls, MN

Change the Weather History Date:

Tuesday, October 2, 2012

  Actual Average Record
Temperature  
Mean Temperature 58 °F -  
Max Temperature 75 °F 56 °F 82 °F (1992)
Min Temperature 41 °F 37 °F 18 °F (1993)
Degree Days  
Heating Degree Days 7    
Growing Degree Days 8 (Base 50)    
Moisture  
Dew Point 30 °F    
Average Humidity 37    
Maximum Humidity 57    
Minimum Humidity 20    
Precipitation  
Precipitation 0.00 in - - ()
Sea Level Pressure  
Sea Level Pressure 29.77 in    
Wind  
Wind Speed 13 mph (South)    
Max Wind Speed 32 mph    
Max Gust Speed 41 mph    
Visibility 10 miles    
Events      
Averages and records for this station are not official NWS values.
T = Trace of Precipitation, MM = Missing Value Source: NWS Daily Summary

Daily Weather History Graph

Daily Weather History Graph

Search for Another Location

Airport:

Trip Planner

Search our weather history database for the weather conditions in past years. The results will help you decide how hot, cold, wet, or windy it might be!

Date:

Astronomy

Oct. 02, 2012 Rise Set
Actual Time 7:26 AM CDT 7:00 PM CDT
Civil Twilight 6:55 AM CDT 7:31 PM CDT
Nautical Twilight 6:19 AM CDT 8:07 PM CDT
Astronomical Twilight 5:42 AM CDT 8:44 PM CDT
Moon 7:58 PM CDT (10/2) 10:09 AM CDT (10/2)
Length of Visible Light 12h 36m
Length of Day
11h 34m
Waning Gibbous, 94% of the Moon is Illuminated
Oct 2
Waning Gibbous
Oct 8
Last Quarter
Oct 15
New
Oct 21
First Quarter
Oct 29
Full

Hourly Weather History & Observations

Time (CDT) Temp. Windchill Dew Point Humidity Pressure Visibility Wind Dir Wind Speed Gust Speed Precip Events Conditions
12:15 AM 42.8 °F 39.3 °F 24.8 °F 49% 29.94 in 10.0 mi SSE 5.8 mph - N/A   Clear
12:35 AM 42.8 °F 39.3 °F 24.8 °F 49% 29.94 in 10.0 mi South 5.8 mph - N/A   Clear
12:55 AM 44.6 °F 41.4 °F 26.6 °F 49% 29.93 in 10.0 mi South 5.8 mph - N/A   Clear
1:15 AM 44.6 °F 41.4 °F 24.8 °F 46% 29.93 in 10.0 mi SSE 5.8 mph - N/A   Clear
1:35 AM 42.8 °F 38.6 °F 24.8 °F 49% 29.92 in 10.0 mi SSE 6.9 mph - N/A   Clear
1:55 AM 46.4 °F 42.4 °F 26.6 °F 46% 29.93 in 10.0 mi SSE 8.1 mph - N/A   Clear
2:15 AM 44.6 °F 40.7 °F 26.6 °F 49% 29.92 in 10.0 mi SSE 6.9 mph - N/A   Clear
2:35 AM 44.6 °F 40.7 °F 26.6 °F 49% 29.91 in 10.0 mi SSE 6.9 mph - N/A   Clear
3:15 AM 42.8 °F 38.0 °F 26.6 °F 53% 29.90 in 10.0 mi SSE 8.1 mph - N/A   Clear
3:35 AM 42.8 °F 38.6 °F 26.6 °F 53% 29.90 in 10.0 mi SSE 6.9 mph - N/A   Clear
3:55 AM 41.0 °F 36.4 °F 26.6 °F 57% 29.89 in 10.0 mi SSE 6.9 mph - N/A   Clear
4:15 AM 42.8 °F 38.0 °F 26.6 °F 53% 29.89 in 10.0 mi SSE 8.1 mph - N/A   Clear
4:35 AM 42.8 °F 38.6 °F 26.6 °F 53% 29.88 in 10.0 mi SSE 6.9 mph - N/A   Clear
4:55 AM 44.6 °F 40.2 °F 26.6 °F 49% 29.88 in 10.0 mi SSE 8.1 mph - N/A   Clear
5:15 AM 42.8 °F 37.0 °F 26.6 °F 53% 29.88 in 10.0 mi SSE 10.4 mph - N/A   Clear
5:35 AM 44.6 °F 39.2 °F 26.6 °F 49% 29.87 in 10.0 mi SSE 10.4 mph - N/A   Clear
5:55 AM 44.6 °F 40.2 °F 26.6 °F 49% 29.87 in 10.0 mi SSE 8.1 mph - N/A   Clear
6:15 AM 44.6 °F 39.7 °F 26.6 °F 49% 29.86 in 10.0 mi SSE 9.2 mph - N/A   Clear
7:35 AM 44.6 °F 39.2 °F 26.6 °F 49% 29.85 in 10.0 mi SSE 10.4 mph - N/A   Clear
7:55 AM 44.6 °F 39.2 °F 28.4 °F 53% 29.84 in 10.0 mi SSE 10.4 mph - N/A   Clear
8:15 AM 46.4 °F 41.1 °F 28.4 °F 50% 29.84 in 10.0 mi SSE 11.5 mph - N/A   Clear
8:35 AM 48.2 °F - 28.4 °F 46% 29.83 in 10.0 mi SSE 12.7 mph - N/A   Clear
8:55 AM 51.8 °F - 28.4 °F 41% 29.82 in 10.0 mi South 17.3 mph 20.7 mph N/A   Clear
9:15 AM 53.6 °F - 28.4 °F 38% 29.81 in 10.0 mi South 17.3 mph - N/A   Clear
9:35 AM 55.4 °F - 28.4 °F 36% 29.80 in 10.0 mi South 20.7 mph 26.5 mph N/A   Clear
9:55 AM 57.2 °F - 28.4 °F 33% 29.79 in 10.0 mi South 20.7 mph 26.5 mph N/A   Clear
10:15 AM 60.8 °F - 28.4 °F 29% 29.77 in 10.0 mi South 21.9 mph 29.9 mph N/A   Clear
10:35 AM 62.6 °F - 28.4 °F 27% 29.76 in 10.0 mi South 24.2 mph 31.1 mph N/A   Clear
10:55 AM 62.6 °F - 28.4 °F 27% 29.75 in 10.0 mi South 25.3 mph 34.5 mph N/A   Clear
11:15 AM 64.4 °F - 28.4 °F 26% 29.73 in 10.0 mi South 28.8 mph 35.7 mph N/A   Clear
11:35 AM 64.4 °F - 28.4 °F 26% 29.72 in 10.0 mi South 31.1 mph 41.4 mph N/A   Clear
11:55 AM 66.2 °F - 28.4 °F 24% 29.72 in 10.0 mi South 29.9 mph 40.3 mph N/A   Clear
12:15 PM 66.2 °F - 30.2 °F 26% 29.72 in 10.0 mi South 32.2 mph 39.1 mph N/A   Clear
12:35 PM 66.2 °F - 28.4 °F 24% 29.71 in 10.0 mi South 28.8 mph 38.0 mph N/A   Clear
12:55 PM 68.0 °F - 28.4 °F 23% 29.69 in 10.0 mi SSW 31.1 mph 40.3 mph N/A   Clear
1:15 PM 69.8 °F - 28.4 °F 21% 29.67 in 10.0 mi South 25.3 mph 40.3 mph N/A   Clear
1:35 PM 69.8 °F - 28.4 °F 21% 29.66 in 10.0 mi South 27.6 mph 40.3 mph N/A   Clear
1:55 PM 69.8 °F - 28.4 °F 21% 29.67 in 10.0 mi South 26.5 mph 41.4 mph N/A   Clear
2:15 PM 69.8 °F - 28.4 °F 21% 29.67 in 10.0 mi South 28.8 mph 38.0 mph N/A   Clear
2:35 PM 71.6 °F - 30.2 °F 22% 29.66 in 10.0 mi South 27.6 mph 35.7 mph N/A   Clear
2:55 PM 71.6 °F - 30.2 °F 22% 29.66 in 10.0 mi SSW 24.2 mph 36.8 mph N/A   Clear
3:15 PM 71.6 °F - 30.2 °F 22% 29.66 in 10.0 mi SSW 25.3 mph 36.8 mph N/A   Clear
3:35 PM 73.4 °F - 30.2 °F 20% 29.66 in 10.0 mi SSW 25.3 mph 31.1 mph N/A   Clear
3:55 PM 73.4 °F - 30.2 °F 20% 29.65 in 10.0 mi South 24.2 mph 33.4 mph N/A   Clear
4:15 PM 73.4 °F - 30.2 °F 20% 29.65 in 10.0 mi SSW 25.3 mph 36.8 mph N/A   Clear
4:35 PM 73.4 °F - 30.2 °F 20% 29.64 in 10.0 mi SSW 23.0 mph 31.1 mph N/A   Clear
4:55 PM 75.2 °F - 32.0 °F 21% 29.65 in 10.0 mi SSW 21.9 mph 32.2 mph N/A   Clear
5:15 PM 73.4 °F - 32.0 °F 22% 29.64 in 10.0 mi SSW 23.0 mph 28.8 mph N/A   Clear
5:35 PM 73.4 °F - 32.0 °F 22% 29.64 in 10.0 mi SSW 21.9 mph 27.6 mph N/A   Clear
5:55 PM 73.4 °F - 32.0 °F 22% 29.65 in 10.0 mi SSW 20.7 mph 27.6 mph N/A   Clear
6:15 PM 73.4 °F - 32.0 °F 22% 29.65 in 10.0 mi SSW 20.7 mph - N/A   Clear
6:35 PM 71.6 °F - 30.2 °F 22% 29.66 in 10.0 mi SSW 13.8 mph - N/A   Clear
7:15 PM 69.8 °F - 30.2 °F 23% 29.69 in 10.0 mi WSW 11.5 mph - N/A   Clear
7:35 PM 66.2 °F - 35.6 °F 32% 29.70 in 10.0 mi West 9.2 mph - N/A   Clear
7:55 PM 66.2 °F - 37.4 °F 35% 29.71 in 10.0 mi WSW 8.1 mph - N/A   Clear
8:15 PM 64.4 °F - 37.4 °F 37% 29.71 in 10.0 mi West 5.8 mph - N/A   Clear
8:35 PM 64.4 °F - 37.4 °F 37% 29.72 in 10.0 mi WSW 4.6 mph - N/A   Clear
8:55 PM 62.6 °F - 37.4 °F 39% 29.72 in 10.0 mi West 8.1 mph - N/A   Clear
9:15 PM 62.6 °F - 37.4 °F 39% 29.73 in 10.0 mi West 6.9 mph - N/A   Clear
9:35 PM 60.8 °F - 37.4 °F 42% 29.74 in 10.0 mi West 6.9 mph - N/A   Clear
9:55 PM 60.8 °F - 37.4 °F 42% 29.74 in 10.0 mi West 5.8 mph - N/A   Clear
10:15 PM 60.8 °F - 37.4 °F 42% 29.75 in 10.0 mi West 5.8 mph - N/A   Clear
10:35 PM 55.4 °F - 35.6 °F 47% 29.76 in 10.0 mi South 8.1 mph - N/A   Clear
10:55 PM 55.4 °F - 35.6 °F 47% 29.76 in 10.0 mi SW 4.6 mph - N/A   Clear
11:15 PM 53.6 °F - 35.6 °F 51% 29.77 in 10.0 mi South 6.9 mph - N/A   Scattered Clouds
11:35 PM 53.6 °F - 35.6 °F 51% 29.78 in 10.0 mi SSW 5.8 mph - N/A   Partly Cloudy
11:55 PM 53.6 °F - 35.6 °F 51% 29.78 in 10.0 mi SW 5.8 mph - N/A   Clear